Time,TemperatureF,DewpointF,PressureIn,WindDirection,WindDirectionDegrees,WindSpeedMPH,WindSpeedGustMPH,Humidity,HourlyPrecipIn,Conditions,Clouds,dailyrainin,SoftwareType,DateUTC
2013-02-05 00:00:00,40.5,25.9,29.82,West,270,0.4,2.5,56,0.00,,,0.00,WUHU216HW,2013-02-05 05:00:00,
2013-02-05 00:05:00,40.5,25.9,29.82,WSW,248,0.9,2.7,56,0.00,,,0.00,WUHU216HW,2013-02-05 05:05:00,
2013-02-05 00:10:00,40.7,26.1,29.82,West,270,0.9,3.4,56,0.00,,,0.00,WUHU216HW,2013-02-05 05:10:00,
2013-02-05 00:15:00,40.7,26.1,29.82,WNW,293,1.8,3.6,56,0.00,,,0.00,WUHU216HW,2013-02-05 05:15:00,
2013-02-05 00:20:00,40.7,26.1,29.82,WSW,248,1.8,3.6,56,0.00,,,0.00,WUHU216HW,2013-02-05 05:20:00,
2013-02-05 00:25:00,40.7,26.1,29.81,SE,135,4.0,4.0,56,0.00,,,0.00,WUHU216HW,2013-02-05 05:25:00,
2013-02-05 00:30:00,40.9,26.3,29.81,WSW,248,1.1,4.0,56,0.00,,,0.00,WUHU216HW,2013-02-05 05:30:00,
2013-02-05 00:35:00,41.0,26.5,29.81,WNW,293,1.1,2.9,56,0.00,,,0.00,WUHU216HW,2013-02-05 05:35:00,
2013-02-05 00:40:00,41.0,26.5,29.81,WNW,293,2.9,2.9,56,0.00,,,0.00,WUHU216HW,2013-02-05 05:40:00,
2013-02-05 00:45:00,41.0,26.5,29.81,SE,135,1.1,2.9,56,0.00,,,0.00,WUHU216HW,2013-02-05 05:45:00,
2013-02-05 00:50:00,41.2,26.7,29.81,SSW,203,0.9,2.7,56,0.00,,,0.00,WUHU216HW,2013-02-05 05:50:00,
2013-02-05 00:55:00,41.2,26.7,29.81,South,180,0.7,1.8,56,0.00,,,0.00,WUHU216HW,2013-02-05 05:55:00,
2013-02-05 01:00:00,41.2,26.7,29.80,WNW,293,2.5,4.7,56,0.00,,,0.00,WUHU216HW,2013-02-05 06:00:00,
2013-02-05 01:05:00,41.4,26.8,29.80,SW,225,4.0,4.7,56,0.00,,,0.00,WUHU216HW,2013-02-05 06:05:00,
2013-02-05 01:10:00,41.4,26.8,29.80,SSE,158,1.3,4.5,56,0.00,,,0.00,WUHU216HW,2013-02-05 06:10:00,
2013-02-05 01:15:00,41.4,26.8,29.80,West,270,1.8,4.5,56,0.00,,,0.00,WUHU216HW,2013-02-05 06:15:00,
2013-02-05 01:20:00,41.4,26.8,29.80,WSW,248,1.3,3.8,56,0.00,,,0.00,WUHU216HW,2013-02-05 06:20:00,
2013-02-05 01:25:00,41.6,27.0,29.80,SE,135,1.1,2.9,56,0.00,,,0.00,WUHU216HW,2013-02-05 06:25:00,
2013-02-05 01:30:00,41.6,27.0,29.80,WNW,293,2.9,2.9,56,0.00,,,0.00,WUHU216HW,2013-02-05 06:30:00,
2013-02-05 01:35:00,41.6,27.0,29.80,WSW,248,1.8,4.0,56,0.00,,,0.00,WUHU216HW,2013-02-05 06:35:00,
2013-02-05 01:40:00,41.8,27.2,29.80,SW,225,0.4,4.0,56,0.00,,,0.00,WUHU216HW,2013-02-05 06:40:00,
2013-02-05 01:45:00,41.8,27.2,29.80,SSE,158,1.8,2.7,56,0.00,,,0.00,WUHU216HW,2013-02-05 06:45:00,
2013-02-05 01:50:00,41.8,27.2,29.80,West,270,4.0,4.0,56,0.00,,,0.00,WUHU216HW,2013-02-05 06:50:00,
2013-02-05 01:55:00,41.8,27.2,29.80,WNW,293,1.1,4.0,56,0.00,,,0.00,WUHU216HW,2013-02-05 06:55:00,
2013-02-05 02:00:00,41.9,27.3,29.80,West,270,0.9,3.1,56,0.00,,,0.00,WUHU216HW,2013-02-05 07:00:00,
2013-02-05 02:05:00,41.9,27.3,29.80,SSW,203,0.7,3.4,56,0.00,,,0.00,WUHU216HW,2013-02-05 07:05:00,
2013-02-05 02:10:00,41.9,27.3,29.80,SW,225,1.3,3.4,56,0.00,,,0.00,WUHU216HW,2013-02-05 07:10:00,
2013-02-05 02:15:00,41.9,27.3,29.80,West,270,0.2,1.8,56,0.00,,,0.00,WUHU216HW,2013-02-05 07:15:00,
2013-02-05 02:20:00,41.9,27.7,29.80,SSW,203,0.4,1.8,57,0.00,,,0.00,WUHU216HW,2013-02-05 07:20:00,
2013-02-05 02:25:00,41.9,27.7,29.80,West,270,1.3,2.5,57,0.00,,,0.00,WUHU216HW,2013-02-05 07:25:00,
2013-02-05 02:30:00,41.9,27.7,29.80,WSW,248,0.9,2.5,57,0.00,,,0.00,WUHU216HW,2013-02-05 07:30:00,
2013-02-05 02:35:00,41.9,27.7,29.79,WSW,248,0.7,1.8,57,0.00,,,0.00,WUHU216HW,2013-02-05 07:35:00,
2013-02-05 02:40:00,42.1,27.9,29.79,WSW,248,0.9,2.5,57,0.00,,,0.00,WUHU216HW,2013-02-05 07:40:00,
2013-02-05 02:45:00,42.1,27.9,29.79,WSW,248,0.4,2.5,57,0.00,,,0.00,WUHU216HW,2013-02-05 07:45:00,
2013-02-05 02:50:00,42.1,27.9,29.79,South,180,0.7,1.6,57,0.00,,,0.00,WUHU216HW,2013-02-05 07:50:00,
2013-02-05 02:55:00,42.1,27.9,29.79,West,270,0.2,1.6,57,0.00,,,0.00,WUHU216HW,2013-02-05 07:55:00,
2013-02-05 03:00:00,42.1,27.9,29.79,SW,225,1.1,1.6,57,0.00,,,0.00,WUHU216HW,2013-02-05 08:00:00,
2013-02-05 03:05:00,42.1,27.9,29.79,WNW,293,0.7,1.3,57,0.00,,,0.00,WUHU216HW,2013-02-05 08:05:00,
2013-02-05 03:10:00,42.1,27.9,29.79,SW,225,0.7,1.3,57,0.00,,,0.00,WUHU216HW,2013-02-05 08:10:00,
2013-02-05 03:15:00,42.1,27.9,29.78,West,270,0.0,1.1,57,0.00,,,0.00,WUHU216HW,2013-02-05 08:15:00,
2013-02-05 03:20:00,42.1,28.4,29.78,WSW,248,0.4,1.1,58,0.00,,,0.00,WUHU216HW,2013-02-05 08:20:00,
2013-02-05 03:25:00,42.1,28.4,29.78,South,180,0.7,2.0,58,0.00,,,0.00,WUHU216HW,2013-02-05 08:25:00,
2013-02-05 03:30:00,42.1,28.4,29.78,South,180,0.4,2.0,58,0.00,,,0.00,WUHU216HW,2013-02-05 08:30:00,
2013-02-05 03:35:00,42.1,28.4,29.78,WNW,293,0.4,0.9,58,0.00,,,0.00,WUHU216HW,2013-02-05 08:35:00,
2013-02-05 03:40:00,42.1,28.4,29.78,SW,225,0.0,0.9,58,0.00,,,0.00,WUHU216HW,2013-02-05 08:40:00,
2013-02-05 03:45:00,42.1,28.4,29.78,WNW,293,0.4,0.9,58,0.00,,,0.00,WUHU216HW,2013-02-05 08:45:00,
2013-02-05 03:50:00,42.1,28.4,29.78,West,270,0.7,0.7,58,0.00,,,0.00,WUHU216HW,2013-02-05 08:50:00,
2013-02-05 03:55:00,42.1,28.4,29.78,West,270,0.9,1.1,58,0.00,,,0.00,WUHU216HW,2013-02-05 08:55:00,
2013-02-05 04:00:00,41.9,28.2,29.78,SW,225,0.4,1.1,58,0.00,,,0.00,WUHU216HW,2013-02-05 09:00:00,
2013-02-05 04:05:00,41.9,28.6,29.78,NW,315,0.0,0.4,59,0.00,,,0.00,WUHU216HW,2013-02-05 09:05:00,
2013-02-05 04:10:00,41.9,28.6,29.78,WNW,293,0.0,0.4,59,0.00,,,0.00,WUHU216HW,2013-02-05 09:10:00,
2013-02-05 04:15:00,41.9,28.6,29.78,SSW,203,0.0,0.4,59,0.00,,,0.00,WUHU216HW,2013-02-05 09:15:00,
2013-02-05 04:20:00,41.9,28.6,29.78,SW,225,0.4,1.6,59,0.00,,,0.00,WUHU216HW,2013-02-05 09:20:00,
2013-02-05 04:25:00,41.9,28.6,29.78,SSW,203,0.4,1.6,59,0.00,,,0.00,WUHU216HW,2013-02-05 09:25:00,
2013-02-05 04:29:00,41.9,28.6,29.78,WSW,248,0.4,0.4,59,0.00,,,0.00,WUHU216HW,2013-02-05 09:29:00,
2013-02-05 04:30:00,41.9,28.6,29.78,WSW,248,0.4,0.9,59,0.00,,,0.00,WUHU216HW,2013-02-05 09:30:00,
2013-02-05 04:35:00,41.9,28.6,29.78,WSW,248,0.4,0.9,59,0.00,,,0.00,WUHU216HW,2013-02-05 09:35:00,
2013-02-05 04:59:00,41.6,28.7,29.78,SSW,203,0.2,0.2,60,0.00,,,0.00,WUHU216HW,2013-02-05 09:59:00,
2013-02-05 05:04:00,41.6,28.7,29.78,South,180,0.0,0.4,60,0.00,,,0.00,WUHU216HW,2013-02-05 10:04:00,
2013-02-05 05:09:00,41.6,29.2,29.78,SW,225,0.2,0.7,61,0.00,,,0.00,WUHU216HW,2013-02-05 10:09:00,
2013-02-05 05:14:00,41.4,28.6,29.77,SSW,203,0.0,0.9,60,0.00,,,0.00,WUHU216HW,2013-02-05 10:14:00,
2013-02-05 05:19:00,41.4,28.6,29.78,SSW,203,0.0,0.9,60,0.00,,,0.00,WUHU216HW,2013-02-05 10:19:00,
2013-02-05 05:24:00,41.4,29.0,29.78,SW,225,0.0,0.4,61,0.00,,,0.00,WUHU216HW,2013-02-05 10:24:00,
2013-02-05 05:29:00,41.2,28.8,29.78,SW,225,0.2,0.9,61,0.00,,,0.00,WUHU216HW,2013-02-05 10:29:00,
2013-02-05 05:34:00,41.2,28.8,29.77,SSE,158,0.2,0.9,61,0.00,,,0.00,WUHU216HW,2013-02-05 10:34:00,
2013-02-05 05:39:00,41.2,28.8,29.78,SSW,203,0.0,0.4,61,0.00,,,0.00,WUHU216HW,2013-02-05 10:39:00,
2013-02-05 05:44:00,41.2,29.2,29.78,SW,225,0.0,0.4,62,0.00,,,0.00,WUHU216HW,2013-02-05 10:44:00,
2013-02-05 05:49:00,41.2,29.2,29.78,SSW,203,0.2,0.7,62,0.00,,,0.00,WUHU216HW,2013-02-05 10:49:00,
2013-02-05 05:54:00,41.2,29.2,29.78,SSW,203,0.0,1.1,62,0.00,,,0.00,WUHU216HW,2013-02-05 10:54:00,
2013-02-05 05:59:00,41.2,29.2,29.78,SW,225,0.2,1.1,62,0.00,,,0.00,WUHU216HW,2013-02-05 10:59:00,
2013-02-05 06:04:00,41.2,29.2,29.78,WSW,248,0.4,0.9,62,0.00,,,0.00,WUHU216HW,2013-02-05 11:04:00,
2013-02-05 06:09:00,41.2,29.2,29.78,NNW,338,0.7,1.1,62,0.00,,,0.00,WUHU216HW,2013-02-05 11:09:00,
2013-02-05 06:14:00,41.2,29.2,29.78,SSW,203,0.4,1.1,62,0.00,,,0.00,WUHU216HW,2013-02-05 11:14:00,
2013-02-05 06:19:00,41.4,29.3,29.78,SW,225,0.7,1.1,62,0.00,,,0.00,WUHU216HW,2013-02-05 11:19:00,
2013-02-05 06:24:00,41.4,29.3,29.78,SSW,203,2.2,2.2,62,0.00,,,0.00,WUHU216HW,2013-02-05 11:24:00,
2013-02-05 06:29:00,41.4,29.3,29.79,SW,225,0.9,2.2,62,0.00,,,0.00,WUHU216HW,2013-02-05 11:29:00,
2013-02-05 06:34:00,41.4,29.7,29.78,SSW,203,1.1,2.2,63,0.00,,,0.00,WUHU216HW,2013-02-05 11:34:00,
2013-02-05 06:39:00,41.4,29.3,29.78,WNW,293,0.4,1.8,62,0.00,,,0.00,WUHU216HW,2013-02-05 11:39:00,
2013-02-05 06:44:00,41.6,29.5,29.78,South,180,0.4,1.1,62,0.00,,,0.00,WUHU216HW,2013-02-05 11:44:00,
2013-02-05 06:49:00,41.6,29.5,29.78,South,180,0.4,1.1,62,0.00,,,0.00,WUHU216HW,2013-02-05 11:49:00,
2013-02-05 06:54:00,41.8,29.7,29.77,SSW,203,0.4,0.4,62,0.00,,,0.00,WUHU216HW,2013-02-05 11:54:00,
2013-02-05 06:59:00,41.8,29.7,29.78,West,270,0.4,2.2,62,0.00,,,0.00,WUHU216HW,2013-02-05 11:59:00,
2013-02-05 07:04:00,41.8,29.7,29.79,WSW,248,1.1,2.2,62,0.00,,,0.00,WUHU216HW,2013-02-05 12:04:00,
2013-02-05 07:09:00,41.8,29.7,29.79,West,270,1.3,1.6,62,0.00,,,0.00,WUHU216HW,2013-02-05 12:09:00,
2013-02-05 07:14:00,41.8,29.7,29.79,SW,225,0.7,1.6,62,0.00,,,0.00,WUHU216HW,2013-02-05 12:14:00,
2013-02-05 07:19:00,41.8,29.7,29.79,WSW,248,0.7,1.3,62,0.00,,,0.00,WUHU216HW,2013-02-05 12:19:00,
2013-02-05 07:24:00,41.8,29.7,29.79,West,270,0.4,1.3,62,0.00,,,0.00,WUHU216HW,2013-02-05 12:24:00,
2013-02-05 07:29:00,41.8,29.7,29.79,SW,225,0.4,1.1,62,0.00,,,0.00,WUHU216HW,2013-02-05 12:29:00,
2013-02-05 07:34:00,41.8,30.1,29.79,SW,225,0.4,1.8,63,0.00,,,0.00,WUHU216HW,2013-02-05 12:34:00,
2013-02-05 07:39:00,41.9,29.9,29.80,WSW,248,0.2,1.8,62,0.00,,,0.00,WUHU216HW,2013-02-05 12:39:00,
2013-02-05 07:44:00,41.9,29.9,29.80,West,270,0.4,1.1,62,0.00,,,0.00,WUHU216HW,2013-02-05 12:44:00,
2013-02-05 07:49:00,42.1,30.0,29.80,WNW,293,0.7,0.7,62,0.00,,,0.00,WUHU216HW,2013-02-05 12:49:00,
2013-02-05 07:54:00,42.1,30.0,29.81,West,270,0.0,2.5,62,0.00,,,0.00,WUHU216HW,2013-02-05 12:54:00,
2013-02-05 07:59:00,42.1,30.0,29.81,WSW,248,0.2,2.5,62,0.00,,,0.00,WUHU216HW,2013-02-05 12:59:00,
2013-02-05 08:04:00,42.3,30.6,29.81,WSW,248,0.4,1.6,63,0.00,,,0.00,WUHU216HW,2013-02-05 13:04:00,
2013-02-05 08:09:00,42.3,30.6,29.80,WSW,248,0.2,1.8,63,0.00,,,0.00,WUHU216HW,2013-02-05 13:09:00,
2013-02-05 08:14:00,42.5,30.7,29.80,SSW,203,1.1,1.8,63,0.00,,,0.00,WUHU216HW,2013-02-05 13:14:00,
2013-02-05 08:15:00,42.5,30.7,29.80,SW,225,0.2,0.2,63,0.00,,,0.00,WUHU216HW,2013-02-05 13:15:00,
2013-02-05 08:19:00,42.5,30.7,29.80,SW,225,0.2,1.1,63,0.00,,,0.00,WUHU216HW,2013-02-05 13:19:00,
2013-02-05 08:24:00,42.5,30.7,29.80,SW,225,0.2,0.2,63,0.00,,,0.00,WUHU216HW,2013-02-05 13:24:00,
2013-02-05 08:45:00,42.8,32.2,29.81,WSW,248,0.9,0.9,66,0.00,,,0.00,WUHU216HW,2013-02-05 13:45:00,
2013-02-05 08:50:00,42.8,32.2,29.81,WSW,248,0.9,0.9,66,0.00,,,0.00,WUHU216HW,2013-02-05 13:50:00,
2013-02-05 09:00:00,42.8,32.2,29.81,West,270,0.4,0.4,66,0.00,,,0.00,WUHU216HW,2013-02-05 14:00:00,
2013-02-05 09:05:00,43.0,32.4,29.81,NW,315,0.4,0.9,66,0.00,,,0.00,WUHU216HW,2013-02-05 14:05:00,
2013-02-05 09:10:00,43.2,32.2,29.81,West,270,0.7,0.9,65,0.00,,,0.00,WUHU216HW,2013-02-05 14:10:00,
2013-02-05 09:15:00,43.4,32.8,29.81,WSW,248,0.4,0.7,66,0.00,,,0.00,WUHU216HW,2013-02-05 14:15:00,
2013-02-05 09:20:00,43.6,32.6,29.81,NW,315,0.0,0.9,65,0.00,,,0.00,WUHU216HW,2013-02-05 14:20:00,
2013-02-05 09:25:00,43.9,32.9,29.81,WNW,293,0.0,0.9,65,0.00,,,0.00,WUHU216HW,2013-02-05 14:25:00,
2013-02-05 09:30:00,44.3,33.2,29.81,West,270,2.5,2.5,65,0.00,,,0.00,WUHU216HW,2013-02-05 14:30:00,
2013-02-05 09:35:00,44.5,33.0,29.81,WSW,248,0.0,2.5,64,0.00,,,0.00,WUHU216HW,2013-02-05 14:35:00,
2013-02-05 09:40:00,44.6,33.2,29.81,NNW,338,0.2,2.2,64,0.00,,,0.00,WUHU216HW,2013-02-05 14:40:00,
2013-02-05 09:45:00,44.8,32.9,29.81,West,270,0.2,2.2,63,0.00,,,0.00,WUHU216HW,2013-02-05 14:45:00,
2013-02-05 09:50:00,45.0,33.1,29.80,WSW,248,0.9,1.3,63,0.00,,,0.00,WUHU216HW,2013-02-05 14:50:00,
2013-02-05 09:55:00,45.4,33.5,29.81,SSE,158,0.7,0.9,63,0.00,,,0.00,WUHU216HW,2013-02-05 14:55:00,
2013-02-05 10:00:00,45.7,33.9,29.81,WSW,248,0.2,1.3,63,0.00,,,0.00,WUHU216HW,2013-02-05 15:00:00,
2013-02-05 10:05:00,46.1,33.8,29.80,West,270,1.8,1.8,62,0.00,,,0.00,WUHU216HW,2013-02-05 15:05:00,
2013-02-05 10:10:00,46.6,34.3,29.80,SW,225,1.8,1.8,62,0.00,,,0.00,WUHU216HW,2013-02-05 15:10:00,
2013-02-05 10:15:00,47.2,34.4,29.80,NW,315,1.8,2.5,61,0.00,,,0.00,WUHU216HW,2013-02-05 15:15:00,
2013-02-05 10:20:00,47.5,34.7,29.81,WNW,293,1.3,2.5,61,0.00,,,0.00,WUHU216HW,2013-02-05 15:20:00,
2013-02-05 10:25:00,47.9,34.7,29.81,West,270,4.7,4.7,60,0.00,,,0.00,WUHU216HW,2013-02-05 15:25:00,
2013-02-05 10:30:00,47.9,34.7,29.81,WSW,248,0.9,4.7,60,0.00,,,0.00,WUHU216HW,2013-02-05 15:30:00,
2013-02-05 10:35:00,48.1,34.9,29.81,WSW,248,3.4,3.4,60,0.00,,,0.00,WUHU216HW,2013-02-05 15:35:00,
2013-02-05 10:40:00,48.2,34.7,29.81,West,270,0.4,3.4,59,0.00,,,0.00,WUHU216HW,2013-02-05 15:40:00,
2013-02-05 10:45:00,48.6,34.9,29.81,WSW,248,1.1,3.4,59,0.00,,,0.00,WUHU216HW,2013-02-05 15:45:00,
2013-02-05 10:50:00,48.8,34.7,29.81,WNW,293,0.9,4.3,58,0.00,,,0.00,WUHU216HW,2013-02-05 15:50:00,
2013-02-05 10:55:00,49.0,34.8,29.81,West,270,1.8,4.3,58,0.00,,,0.00,WUHU216HW,2013-02-05 15:55:00,
2013-02-05 11:00:00,49.3,34.8,29.80,West,270,2.9,2.9,57,0.00,,,0.00,WUHU216HW,2013-02-05 16:00:00,
2013-02-05 11:05:00,49.3,34.8,29.80,WSW,248,1.1,4.0,57,0.00,,,0.00,WUHU216HW,2013-02-05 16:05:00,
2013-02-05 11:10:00,49.5,34.4,29.81,West,270,1.1,4.0,56,0.00,,,0.00,WUHU216HW,2013-02-05 16:10:00,
2013-02-05 11:15:00,49.5,34.4,29.81,West,270,0.9,3.4,56,0.00,,,0.00,WUHU216HW,2013-02-05 16:15:00,
2013-02-05 11:20:00,49.7,34.6,29.81,WNW,293,7.4,7.4,56,0.00,,,0.00,WUHU216HW,2013-02-05 16:20:00,
2013-02-05 11:25:00,49.7,34.6,29.81,West,270,2.5,7.4,56,0.00,,,0.00,WUHU216HW,2013-02-05 16:25:00,
2013-02-05 11:30:00,49.9,34.3,29.81,WNW,293,1.1,4.0,55,0.00,,,0.00,WUHU216HW,2013-02-05 16:30:00,
2013-02-05 11:35:00,50.0,34.5,29.81,NW,315,1.8,3.8,55,0.00,,,0.00,WUHU216HW,2013-02-05 16:35:00,
2013-02-05 11:40:00,50.2,34.7,29.80,West,270,1.1,3.8,55,0.00,,,0.00,WUHU216HW,2013-02-05 16:40:00,
2013-02-05 11:45:00,50.6,34.9,29.80,NNW,338,0.4,1.8,55,0.00,,,0.00,WUHU216HW,2013-02-05 16:45:00,
2013-02-05 11:50:00,50.9,35.3,29.80,West,270,0.9,1.8,55,0.00,,,0.00,WUHU216HW,2013-02-05 16:50:00,
2013-02-05 11:55:00,51.3,35.7,29.80,West,270,1.8,2.5,55,0.00,,,0.00,WUHU216HW,2013-02-05 16:55:00,
2013-02-05 12:00:00,51.5,35.3,29.79,West,270,3.1,3.1,54,0.00,,,0.00,WUHU216HW,2013-02-05 17:00:00,
2013-02-05 12:05:00,51.8,35.6,29.79,West,270,2.5,5.1,54,0.00,,,0.00,WUHU216HW,2013-02-05 17:05:00,
2013-02-05 12:10:00,51.8,35.2,29.79,West,270,2.2,5.1,53,0.00,,,0.00,WUHU216HW,2013-02-05 17:10:00,
2013-02-05 12:15:00,52.0,35.4,29.78,West,270,2.7,4.3,53,0.00,,,0.00,WUHU216HW,2013-02-05 17:15:00,
2013-02-05 12:20:00,52.2,35.6,29.78,NNW,338,1.6,4.7,53,0.00,,,0.00,WUHU216HW,2013-02-05 17:20:00,
2013-02-05 12:25:00,52.6,35.4,29.78,NW,315,1.8,4.7,52,0.00,,,0.00,WUHU216HW,2013-02-05 17:25:00,
2013-02-05 12:30:00,52.6,35.4,29.77,WNW,293,4.7,6.0,52,0.00,,,0.00,WUHU216HW,2013-02-05 17:30:00,
2013-02-05 12:35:00,52.9,35.7,29.77,North,0,2.9,6.0,52,0.00,,,0.00,WUHU216HW,2013-02-05 17:35:00,
2013-02-05 12:40:00,52.9,35.3,29.76,West,270,1.8,4.0,51,0.00,,,0.00,WUHU216HW,2013-02-05 17:40:00,
2013-02-05 12:45:00,53.5,35.7,29.76,WSW,248,4.0,5.4,51,0.00,,,0.00,WUHU216HW,2013-02-05 17:45:00,
2013-02-05 12:50:00,53.8,36.1,29.76,NNW,338,2.2,5.4,51,0.00,,,0.00,WUHU216HW,2013-02-05 17:50:00,
2013-02-05 12:55:00,54.0,35.8,29.75,North,0,3.4,6.7,50,0.00,,,0.00,WUHU216HW,2013-02-05 17:55:00,
2013-02-05 13:00:00,54.0,35.8,29.75,WSW,248,1.3,6.7,50,0.00,,,0.00,WUHU216HW,2013-02-05 18:00:00,
2013-02-05 13:05:00,54.2,36.5,29.75,WNW,293,4.0,5.1,51,0.00,,,0.00,WUHU216HW,2013-02-05 18:05:00,
2013-02-05 13:10:00,54.4,36.5,29.75,West,270,1.1,5.1,51,0.00,,,0.00,WUHU216HW,2013-02-05 18:10:00,
2013-02-05 13:15:00,54.4,36.1,29.74,West,270,2.5,5.1,50,0.00,,,0.00,WUHU216HW,2013-02-05 18:15:00,
2013-02-05 13:20:00,54.5,36.7,29.74,WNW,293,1.1,5.1,51,0.00,,,0.00,WUHU216HW,2013-02-05 18:20:00,
2013-02-05 13:21:00,54.5,36.3,29.74,South,180,0.7,0.7,50,0.00,,,0.00,WUHU216HW,2013-02-05 18:21:00,
2013-02-05 13:25:00,54.5,36.3,29.74,South,180,0.7,2.5,50,0.00,,,0.00,WUHU216HW,2013-02-05 18:25:00,
2013-02-05 13:30:00,54.5,36.3,29.74,South,180,0.7,0.7,50,0.00,,,0.00,WUHU216HW,2013-02-05 18:30:00,
2013-02-05 13:51:00,54.5,36.3,29.73,West,270,0.4,0.4,50,0.00,,,0.00,WUHU216HW,2013-02-05 18:51:00,
2013-02-05 13:56:00,54.7,36.5,29.73,NNW,338,1.8,4.0,50,0.00,,,0.00,WUHU216HW,2013-02-05 18:56:00,
2013-02-05 14:01:00,55.1,36.7,29.73,WSW,248,0.9,4.0,50,0.00,,,0.00,WUHU216HW,2013-02-05 19:01:00,
2013-02-05 14:06:00,55.4,37.1,29.73,South,180,2.7,5.6,50,0.00,,,0.00,WUHU216HW,2013-02-05 19:06:00,
2013-02-05 14:11:00,55.6,37.3,29.73,West,270,2.5,5.6,50,0.00,,,0.00,WUHU216HW,2013-02-05 19:11:00,
2013-02-05 14:16:00,55.6,37.3,29.73,WSW,248,1.8,7.2,50,0.00,,,0.00,WUHU216HW,2013-02-05 19:16:00,
2013-02-05 14:21:00,55.4,37.1,29.73,West,270,1.1,7.2,50,0.00,,,0.00,WUHU216HW,2013-02-05 19:21:00,
2013-02-05 14:26:00,55.4,37.1,29.72,West,270,2.2,6.0,50,0.00,,,0.00,WUHU216HW,2013-02-05 19:26:00,
2013-02-05 14:31:00,55.4,37.1,29.72,WSW,248,1.8,4.5,50,0.00,,,0.00,WUHU216HW,2013-02-05 19:31:00,
2013-02-05 14:36:00,55.6,37.3,29.72,WNW,293,2.5,6.9,50,0.00,,,0.00,WUHU216HW,2013-02-05 19:36:00,
2013-02-05 14:41:00,55.6,37.3,29.72,WNW,293,2.5,6.9,50,0.00,,,0.00,WUHU216HW,2013-02-05 19:41:00,
2013-02-05 14:46:00,55.8,37.4,29.72,West,270,3.4,5.6,50,0.00,,,0.00,WUHU216HW,2013-02-05 19:46:00,
2013-02-05 14:51:00,55.8,37.4,29.72,West,270,2.9,5.6,50,0.00,,,0.00,WUHU216HW,2013-02-05 19:51:00,
2013-02-05 14:56:00,56.2,37.8,29.72,West,270,1.1,3.4,50,0.00,,,0.00,WUHU216HW,2013-02-05 19:56:00,
2013-02-05 15:01:00,56.0,37.6,29.72,WSW,248,2.5,4.0,50,0.00,,,0.00,WUHU216HW,2013-02-05 20:01:00,
2013-02-05 15:06:00,56.0,37.6,29.72,West,270,2.7,6.9,50,0.00,,,0.00,WUHU216HW,2013-02-05 20:06:00,
2013-02-05 15:11:00,56.0,37.6,29.72,West,270,2.5,6.9,50,0.00,,,0.00,WUHU216HW,2013-02-05 20:11:00,
2013-02-05 15:16:00,56.0,37.6,29.71,WSW,248,3.4,4.5,50,0.00,,,0.00,WUHU216HW,2013-02-05 20:16:00,
2013-02-05 15:21:00,56.2,37.8,29.72,WSW,248,2.2,5.4,50,0.00,,,0.00,WUHU216HW,2013-02-05 20:21:00,
2013-02-05 15:26:00,56.3,38.0,29.71,West,270,4.7,5.8,50,0.00,,,0.00,WUHU216HW,2013-02-05 20:26:00,
2013-02-05 15:31:00,56.2,37.8,29.72,NW,315,3.4,7.2,50,0.00,,,0.00,WUHU216HW,2013-02-05 20:31:00,
2013-02-05 15:36:00,56.2,37.8,29.72,WNW,293,2.9,7.2,50,0.00,,,0.00,WUHU216HW,2013-02-05 20:36:00,
2013-02-05 15:41:00,56.0,37.6,29.72,East,90,2.5,8.5,50,0.00,,,0.00,WUHU216HW,2013-02-05 20:41:00,
2013-02-05 15:46:00,55.8,37.4,29.72,WNW,293,7.2,8.5,50,0.00,,,0.00,WUHU216HW,2013-02-05 20:46:00,
2013-02-05 15:51:00,56.0,37.6,29.72,West,270,4.0,7.2,50,0.00,,,0.00,WUHU216HW,2013-02-05 20:51:00,
2013-02-05 15:56:00,55.8,37.4,29.72,WSW,248,5.4,6.9,50,0.00,,,0.00,WUHU216HW,2013-02-05 20:56:00,
2013-02-05 16:01:00,55.8,37.4,29.72,WSW,248,3.4,6.5,50,0.00,,,0.00,WUHU216HW,2013-02-05 21:01:00,
2013-02-05 16:06:00,55.8,37.4,29.72,WSW,248,2.5,6.5,50,0.00,,,0.00,WUHU216HW,2013-02-05 21:06:00,
2013-02-05 16:11:00,55.8,37.4,29.73,NNW,338,2.7,4.5,50,0.00,,,0.00,WUHU216HW,2013-02-05 21:11:00,
2013-02-05 16:16:00,55.8,37.4,29.73,North,0,2.5,4.0,50,0.00,,,0.00,WUHU216HW,2013-02-05 21:16:00,
2013-02-05 16:21:00,55.4,37.1,29.73,West,270,2.9,4.7,50,0.00,,,0.00,WUHU216HW,2013-02-05 21:21:00,
2013-02-05 16:26:00,55.4,37.1,29.73,West,270,1.8,4.7,50,0.00,,,0.00,WUHU216HW,2013-02-05 21:26:00,
2013-02-05 16:31:00,55.4,37.1,29.73,West,270,2.0,4.5,50,0.00,,,0.00,WUHU216HW,2013-02-05 21:31:00,
2013-02-05 16:36:00,55.3,36.9,29.73,SW,225,2.9,4.5,50,0.00,,,0.00,WUHU216HW,2013-02-05 21:36:00,
2013-02-05 16:41:00,55.1,37.3,29.74,West,270,3.1,3.1,51,0.00,,,0.00,WUHU216HW,2013-02-05 21:41:00,
2013-02-05 16:46:00,55.1,37.3,29.74,NW,315,1.8,3.8,51,0.00,,,0.00,WUHU216HW,2013-02-05 21:46:00,
2013-02-05 16:51:00,55.1,37.3,29.74,NW,315,3.6,3.8,51,0.00,,,0.00,WUHU216HW,2013-02-05 21:51:00,
2013-02-05 16:56:00,54.9,37.1,29.74,NW,315,1.3,4.0,51,0.00,,,0.00,WUHU216HW,2013-02-05 21:56:00,
2013-02-05 17:01:00,54.9,37.1,29.74,NW,315,1.8,4.0,51,0.00,,,0.00,WUHU216HW,2013-02-05 22:01:00,
2013-02-05 17:06:00,54.7,36.9,29.74,West,270,1.8,2.0,51,0.00,,,0.00,WUHU216HW,2013-02-05 22:06:00,
2013-02-05 17:11:00,54.7,37.4,29.74,WNW,293,1.6,4.7,52,0.00,,,0.00,WUHU216HW,2013-02-05 22:11:00,
2013-02-05 17:16:00,54.7,37.4,29.74,West,270,2.5,4.7,52,0.00,,,0.00,WUHU216HW,2013-02-05 22:16:00,
2013-02-05 17:21:00,54.5,37.2,29.74,NW,315,1.3,3.1,52,0.00,,,0.00,WUHU216HW,2013-02-05 22:21:00,
2013-02-05 17:26:00,54.4,37.1,29.74,WNW,293,1.3,2.9,52,0.00,,,0.00,WUHU216HW,2013-02-05 22:26:00,
2013-02-05 17:31:00,54.2,36.9,29.74,West,270,1.1,7.4,52,0.00,,,0.00,WUHU216HW,2013-02-05 22:31:00,
2013-02-05 17:36:00,54.0,36.7,29.74,NW,315,2.2,7.4,52,0.00,,,0.00,WUHU216HW,2013-02-05 22:36:00,
2013-02-05 17:41:00,53.8,36.5,29.74,West,270,2.2,4.3,52,0.00,,,0.00,WUHU216HW,2013-02-05 22:41:00,
2013-02-05 17:46:00,53.6,36.4,29.75,West,270,1.8,4.3,52,0.00,,,0.00,WUHU216HW,2013-02-05 22:46:00,
2013-02-05 17:51:00,53.6,36.4,29.75,WNW,293,0.2,3.6,52,0.00,,,0.00,WUHU216HW,2013-02-05 22:51:00,
2013-02-05 17:56:00,53.5,36.3,29.75,WNW,293,2.5,3.6,52,0.00,,,0.00,WUHU216HW,2013-02-05 22:56:00,
2013-02-05 18:01:00,53.3,36.6,29.75,WNW,293,2.5,2.5,53,0.00,,,0.00,WUHU216HW,2013-02-05 23:01:00,
2013-02-05 18:06:00,53.1,35.9,29.75,SW,225,2.2,2.5,52,0.00,,,0.00,WUHU216HW,2013-02-05 23:06:00,
2013-02-05 18:11:00,52.9,36.2,29.75,West,270,1.1,2.2,53,0.00,,,0.00,WUHU216HW,2013-02-05 23:11:00,
2013-02-05 18:16:00,52.7,36.0,29.75,WSW,248,1.1,1.1,53,0.00,,,0.00,WUHU216HW,2013-02-05 23:16:00,
2013-02-05 18:21:00,52.6,35.8,29.75,WSW,248,1.1,1.8,53,0.00,,,0.00,WUHU216HW,2013-02-05 23:21:00,
2013-02-05 18:26:00,52.2,35.6,29.76,NW,315,2.5,2.5,53,0.00,,,0.00,WUHU216HW,2013-02-05 23:26:00,
2013-02-05 18:31:00,52.2,35.6,29.76,West,270,1.8,2.5,53,0.00,,,0.00,WUHU216HW,2013-02-05 23:31:00,
2013-02-05 18:36:00,51.8,35.2,29.76,West,270,1.1,2.5,53,0.00,,,0.00,WUHU216HW,2013-02-05 23:36:00,
2013-02-05 18:41:00,51.8,35.2,29.76,West,270,2.7,2.7,53,0.00,,,0.00,WUHU216HW,2013-02-05 23:41:00,
2013-02-05 18:46:00,51.8,35.2,29.76,West,270,2.7,2.7,53,0.00,,,0.00,WUHU216HW,2013-02-05 23:46:00,
2013-02-05 18:51:00,51.5,34.8,29.76,West,270,2.5,2.9,53,0.00,,,0.00,WUHU216HW,2013-02-05 23:51:00,
2013-02-05 18:56:00,51.5,34.8,29.76,NW,315,3.1,3.1,53,0.00,,,0.00,WUHU216HW,2013-02-05 23:56:00,
2013-02-05 19:01:00,51.3,34.8,29.76,West,270,0.7,3.1,53,0.00,,,0.00,WUHU216HW,2013-02-06 00:01:00,
2013-02-05 19:06:00,51.1,34.6,29.76,WSW,248,0.7,1.8,53,0.00,,,0.00,WUHU216HW,2013-02-06 00:06:00,
2013-02-05 19:11:00,50.9,34.4,29.77,West,270,0.9,1.8,53,0.00,,,0.00,WUHU216HW,2013-02-06 00:11:00,
2013-02-05 19:16:00,50.8,34.7,29.77,WSW,248,0.0,1.6,54,0.00,,,0.00,WUHU216HW,2013-02-06 00:16:00,
2013-02-05 19:21:00,50.8,34.7,29.77,West,270,0.9,1.6,54,0.00,,,0.00,WUHU216HW,2013-02-06 00:21:00,
2013-02-05 19:26:00,50.4,34.4,29.77,WNW,293,1.6,3.1,54,0.00,,,0.00,WUHU216HW,2013-02-06 00:26:00,
2013-02-05 19:31:00,50.4,34.4,29.77,West,270,1.6,3.1,54,0.00,,,0.00,WUHU216HW,2013-02-06 00:31:00,
2013-02-05 19:36:00,50.2,34.2,29.78,West,270,1.8,3.4,54,0.00,,,0.00,WUHU216HW,2013-02-06 00:36:00,
2013-02-05 19:41:00,50.4,34.4,29.78,NW,315,0.7,3.4,54,0.00,,,0.00,WUHU216HW,2013-02-06 00:41:00,
2013-02-05 19:46:00,50.4,34.4,29.78,WNW,293,2.2,3.4,54,0.00,,,0.00,WUHU216HW,2013-02-06 00:46:00,
2013-02-05 19:51:00,50.4,33.9,29.78,NW,315,2.5,5.4,53,0.00,,,0.00,WUHU216HW,2013-02-06 00:51:00,
2013-02-05 19:56:00,50.4,33.9,29.78,WNW,293,2.7,5.4,53,0.00,,,0.00,WUHU216HW,2013-02-06 00:56:00,
2013-02-05 20:01:00,50.4,33.9,29.78,West,270,1.3,3.4,53,0.00,,,0.00,WUHU216HW,2013-02-06 01:01:00,
2013-02-05 20:06:00,50.2,33.8,29.78,West,270,1.8,3.4,53,0.00,,,0.00,WUHU216HW,2013-02-06 01:06:00,
2013-02-05 20:11:00,50.2,33.8,29.78,WNW,293,1.3,3.1,53,0.00,,,0.00,WUHU216HW,2013-02-06 01:11:00,
2013-02-05 20:16:00,50.0,33.6,29.78,WSW,248,1.6,3.1,53,0.00,,,0.00,WUHU216HW,2013-02-06 01:16:00,
2013-02-05 20:21:00,50.0,33.6,29.79,West,270,1.3,3.4,53,0.00,,,0.00,WUHU216HW,2013-02-06 01:21:00,
2013-02-05 20:26:00,50.0,33.6,29.79,West,270,1.1,3.4,53,0.00,,,0.00,WUHU216HW,2013-02-06 01:26:00,
2013-02-05 20:31:00,49.9,33.4,29.79,WSW,248,0.4,2.5,53,0.00,,,0.00,WUHU216HW,2013-02-06 01:31:00,
2013-02-05 20:36:00,49.7,33.2,29.79,WSW,248,1.1,1.1,53,0.00,,,0.00,WUHU216HW,2013-02-06 01:36:00,
2013-02-05 20:41:00,49.3,33.3,29.79,NW,315,1.1,1.1,54,0.00,,,0.00,WUHU216HW,2013-02-06 01:41:00,
2013-02-05 20:46:00,49.3,33.3,29.79,WSW,248,0.9,2.7,54,0.00,,,0.00,WUHU216HW,2013-02-06 01:46:00,
2013-02-05 20:51:00,49.0,32.9,29.79,West,270,0.9,2.7,54,0.00,,,0.00,WUHU216HW,2013-02-06 01:51:00,
2013-02-05 20:56:00,48.8,33.3,29.79,West,270,0.4,1.8,55,0.00,,,0.00,WUHU216HW,2013-02-06 01:56:00,
2013-02-05 21:01:00,48.6,33.1,29.79,WNW,293,1.6,1.8,55,0.00,,,0.00,WUHU216HW,2013-02-06 02:01:00,
2013-02-05 21:06:00,48.2,33.2,29.79,West,270,1.1,1.8,56,0.00,,,0.00,WUHU216HW,2013-02-06 02:06:00,
2013-02-05 21:11:00,48.2,33.2,29.79,WNW,293,1.8,1.8,56,0.00,,,0.00,WUHU216HW,2013-02-06 02:11:00,
2013-02-05 21:16:00,48.1,33.0,29.79,WNW,293,1.6,1.8,56,0.00,,,0.00,WUHU216HW,2013-02-06 02:16:00,
2013-02-05 21:21:00,48.1,33.0,29.79,WNW,293,1.3,1.8,56,0.00,,,0.00,WUHU216HW,2013-02-06 02:21:00,
2013-02-05 21:26:00,47.9,33.4,29.79,WNW,293,1.3,1.8,57,0.00,,,0.00,WUHU216HW,2013-02-06 02:26:00,
2013-02-05 21:31:00,48.1,33.5,29.79,NNW,338,1.3,1.8,57,0.00,,,0.00,WUHU216HW,2013-02-06 02:31:00,
2013-02-05 21:36:00,48.1,33.5,29.79,WNW,293,1.1,1.8,57,0.00,,,0.00,WUHU216HW,2013-02-06 02:36:00,
2013-02-05 21:41:00,48.1,33.5,29.79,West,270,0.0,1.6,57,0.00,,,0.00,WUHU216HW,2013-02-06 02:41:00,
2013-02-05 21:46:00,48.2,33.7,29.79,West,270,0.9,1.6,57,0.00,,,0.00,WUHU216HW,2013-02-06 02:46:00,
2013-02-05 21:51:00,48.2,33.7,29.80,West,270,0.2,1.6,57,0.00,,,0.00,WUHU216HW,2013-02-06 02:51:00,
2013-02-05 21:56:00,48.2,33.7,29.80,West,270,1.1,1.1,57,0.00,,,0.00,WUHU216HW,2013-02-06 02:56:00,
2013-02-05 22:01:00,48.2,34.2,29.80,WSW,248,1.1,1.1,58,0.00,,,0.00,WUHU216HW,2013-02-06 03:01:00,
2013-02-05 22:06:00,48.2,34.2,29.80,WSW,248,0.7,1.6,58,0.00,,,0.00,WUHU216HW,2013-02-06 03:06:00,
2013-02-05 22:11:00,48.2,34.2,29.80,West,270,0.9,2.7,58,0.00,,,0.00,WUHU216HW,2013-02-06 03:11:00,
2013-02-05 22:16:00,48.2,34.2,29.81,West,270,1.1,2.7,58,0.00,,,0.00,WUHU216HW,2013-02-06 03:16:00,
2013-02-05 22:21:00,48.2,34.2,29.81,WNW,293,0.4,1.8,58,0.00,,,0.00,WUHU216HW,2013-02-06 03:21:00,
2013-02-05 22:26:00,48.2,34.2,29.80,West,270,0.2,1.8,58,0.00,,,0.00,WUHU216HW,2013-02-06 03:26:00,
2013-02-05 22:31:00,48.2,34.2,29.81,WNW,293,1.6,1.6,58,0.00,,,0.00,WUHU216HW,2013-02-06 03:31:00,
2013-02-05 22:36:00,48.2,34.2,29.80,West,270,0.4,1.6,58,0.00,,,0.00,WUHU216HW,2013-02-06 03:36:00,
2013-02-05 22:41:00,48.2,34.2,29.81,West,270,0.0,1.3,58,0.00,,,0.00,WUHU216HW,2013-02-06 03:41:00,
2013-02-05 22:46:00,48.2,34.2,29.81,West,270,0.7,0.9,58,0.00,,,0.00,WUHU216HW,2013-02-06 03:46:00,
2013-02-05 22:51:00,48.2,34.2,29.80,WSW,248,0.0,0.7,58,0.00,,,0.00,WUHU216HW,2013-02-06 03:51:00,
2013-02-05 22:56:00,48.2,34.2,29.81,West,270,0.4,0.7,58,0.00,,,0.00,WUHU216HW,2013-02-06 03:56:00,
2013-02-05 23:01:00,48.2,34.7,29.81,West,270,0.0,0.7,59,0.00,,,0.00,WUHU216HW,2013-02-06 04:01:00,
2013-02-05 23:06:00,48.2,34.7,29.81,WSW,248,0.7,0.7,59,0.00,,,0.00,WUHU216HW,2013-02-06 04:06:00,
2013-02-05 23:11:00,48.1,34.5,29.81,West,270,0.9,1.1,59,0.00,,,0.00,WUHU216HW,2013-02-06 04:11:00,
2013-02-05 23:16:00,48.1,34.5,29.81,West,270,0.7,1.1,59,0.00,,,0.00,WUHU216HW,2013-02-06 04:16:00,
2013-02-05 23:21:00,47.9,34.3,29.81,NW,315,0.4,1.1,59,0.00,,,0.00,WUHU216HW,2013-02-06 04:21:00,
2013-02-05 23:26:00,47.9,34.3,29.81,WNW,293,0.4,1.1,59,0.00,,,0.00,WUHU216HW,2013-02-06 04:26:00,
2013-02-05 23:31:00,47.9,34.3,29.81,West,270,0.0,1.3,59,0.00,,,0.00,WUHU216HW,2013-02-06 04:31:00,
2013-02-05 23:36:00,47.9,34.3,29.82,WNW,293,1.1,1.3,59,0.00,,,0.00,WUHU216HW,2013-02-06 04:36:00,
2013-02-05 23:41:00,47.9,34.3,29.82,West,270,0.7,1.8,59,0.00,,,0.00,WUHU216HW,2013-02-06 04:41:00,
2013-02-05 23:46:00,47.9,34.3,29.82,WSW,248,0.4,1.8,59,0.00,,,0.00,WUHU216HW,2013-02-06 04:46:00,
2013-02-05 23:51:00,47.9,34.3,29.82,WSW,248,0.4,1.8,59,0.00,,,0.00,WUHU216HW,2013-02-06 04:51:00,
2013-02-05 23:56:00,47.9,34.7,29.82,WSW,248,1.3,1.8,60,0.00,,,0.00,WUHU216HW,2013-02-06 04:56:00,